Weather History for KLGU - September, 2013

Change the Weather History Date:

Wednesday, September 18, 2013

  Actual Average Record
Temperature  
Mean Temperature 57 °F -  
Max Temperature 66 °F 76 °F 91 °F (1958)
Min Temperature 48 °F 42 °F 22 °F (1965)
Degree Days  
Heating Degree Days 8    
Growing Degree Days 7 (Base 50)    
Moisture  
Dew Point 41 °F    
Average Humidity 57    
Maximum Humidity 86    
Minimum Humidity 27    
Precipitation  
Precipitation 0.00 in - - ()
Sea Level Pressure  
Sea Level Pressure 29.86 in    
Wind  
Wind Speed 6 mph (NNW)    
Max Wind Speed 13 mph    
Max Gust Speed -    
Visibility 10 miles    
Events      
Averages and records for this station are not official NWS values.
T = Trace of Precipitation, MM = Missing Value Source: NWS Daily Summary

Daily Weather History Graph

Daily Weather History Graph

Search for Another Location

Airport or City:

Trip Planner

Search our weather history database for the weather conditions in past years. The results will help you decide how hot, cold, wet, or windy it might be!

Date:

Astronomy

Sep. 18, 2013 Rise Set
Actual Time 7:11 AM MDT 7:31 PM MDT
Civil Twilight 6:43 AM MDT 7:58 PM MDT
Nautical Twilight 6:10 AM MDT 8:31 PM MDT
Astronomical Twilight 5:36 AM MDT 9:04 PM MDT
Moon 6:55 PM MDT (9/18) 6:17 AM MDT (9/18)
Length of Visible Light 13h 15m
Length of Day
12h 20m
Waxing Gibbous, 99% of the Moon is Illuminated
Sep 18
Waxing Gibbous
Sep 19
Full
Sep 26
Last Quarter
Oct 4
New
Oct 11
First Quarter

Hourly Weather History & Observations

Time (MDT) Temp. Dew Point Humidity Pressure Visibility Wind Dir Wind Speed Gust Speed Precip Events Conditions
12:51 AM 57.9 °F 51.1 °F 78% 29.59 in 10.0 mi Calm Calm - N/A   Clear
1:51 AM 55.0 °F 48.9 °F 80% 29.64 in 10.0 mi North 10.4 mph - N/A   Clear
2:51 AM 52.0 °F 48.0 °F 86% 29.68 in 10.0 mi NNW 5.8 mph - N/A   Clear
3:51 AM 54.0 °F 46.0 °F 75% 29.70 in 10.0 mi North 6.9 mph - N/A   Clear
4:51 AM 55.0 °F 43.0 °F 64% 29.72 in 10.0 mi North 11.5 mph - N/A   Clear
5:51 AM 52.0 °F 44.1 °F 74% 29.76 in 10.0 mi North 9.2 mph - N/A   Partly Cloudy
6:51 AM 53.1 °F 44.1 °F 71% 29.80 in 10.0 mi NW 4.6 mph - N/A   Mostly Cloudy
7:51 AM 51.1 °F 45.0 °F 80% 29.86 in 10.0 mi North 5.8 mph - 0.00 in   Mostly Cloudy
8:51 AM 54.0 °F 46.0 °F 75% 29.89 in 10.0 mi NW 4.6 mph - N/A   Overcast
9:51 AM 57.9 °F 42.1 °F 56% 29.90 in 10.0 mi North 3.5 mph - N/A   Scattered Clouds
10:51 AM 60.1 °F 41.0 °F 49% 29.91 in 10.0 mi North 5.8 mph - N/A   Partly Cloudy
11:51 AM 62.1 °F 39.0 °F 43% 29.91 in 10.0 mi Variable 3.5 mph - N/A   Scattered Clouds
12:51 PM 64.0 °F 36.0 °F 35% 29.91 in 10.0 mi West 12.7 mph - N/A   Clear
1:51 PM 64.0 °F 35.1 °F 34% 29.91 in 10.0 mi Variable 6.9 mph - N/A   Clear
2:51 PM 64.9 °F 35.1 °F 33% 29.90 in 10.0 mi NNW 8.1 mph - N/A   Clear
3:51 PM 66.9 °F 34.0 °F 30% 29.88 in 10.0 mi NW 8.1 mph - N/A   Mostly Cloudy
4:51 PM 64.0 °F 34.0 °F 33% 29.89 in 10.0 mi NNW 6.9 mph - N/A   Mostly Cloudy
5:51 PM 66.9 °F 32.0 °F 27% 29.89 in 10.0 mi WNW 6.9 mph - N/A   Mostly Cloudy
6:51 PM 64.0 °F 37.0 °F 37% 29.91 in 10.0 mi NNW 4.6 mph - N/A   Mostly Cloudy
7:51 PM 57.0 °F 41.0 °F 55% 29.95 in 10.0 mi North 8.1 mph - N/A   Mostly Cloudy
8:51 PM 53.1 °F 39.0 °F 59% 29.99 in 10.0 mi NNE 5.8 mph - N/A   Clear
9:51 PM 50.0 °F 37.9 °F 63% 30.00 in 10.0 mi North 3.5 mph - N/A   Clear
10:51 PM 48.0 °F 37.0 °F 66% 30.03 in 10.0 mi NNW 4.6 mph - N/A   Clear
11:51 PM 48.0 °F 36.0 °F 63% 30.04 in 10.0 mi Calm Calm - N/A   Clear